DateTimeUTC,F1_A11,F1_S11,BsB_S11,BsG_S11,BsR_S11,BbsB_S11,BbsG_S11,BbsR_S11,BaB_A11,BaG_A11,BaR_A11,Tu_S11,T_S11,Uu_S11,U_S11,P_S11,T1_A11
2021-09-22T15:00:00Z,00040200,21000000,,,,,,,-000.43,-000.39,-000.18,19.5,26.0,00.3,00.2,0656.8,31.1
2021-09-22T15:01:00Z,00040200,21000000,,,,,,,0000.03,0000.00,-000.20,19.5,26.0,00.3,00.2,0656.8,31.1
2021-09-22T15:02:00Z,00040200,21000000,,,,,,,-000.29,-000.13,-000.27,19.4,26.0,00.3,00.2,0656.8,31.0
2021-09-22T15:03:00Z,00040200,61000000,,,,,,,0000.06,-000.02,0000.12,19.4,26.0,00.3,00.2,0656.8,31.0
2021-09-22T15:04:00Z,00040200,41000000,0001.04,0000.39,0000.07,0000.36,-000.01,0000.41,0000.67,0000.49,0000.28,19.4,25.7,00.5,00.3,0657.6,31.0
2021-09-22T15:05:00Z,00040200,01000000,0000.67,0000.54,-000.01,-000.03,0000.22,-000.28,0000.03,0000.16,0000.46,19.4,25.7,00.6,00.4,0657.7,31.0
2021-09-22T15:06:00Z,00040200,01000000,0000.70,0000.44,0000.34,-000.19,0000.55,0000.03,0000.19,0000.26,0000.07,19.4,25.7,00.6,00.4,0657.8,31.0
2021-09-22T15:07:00Z,00040200,01000000,0001.28,0000.28,0000.47,0000.51,0000.19,-000.11,0000.60,0000.16,0000.12,19.5,25.7,00.5,00.4,0657.8,31.1
2021-09-22T15:08:00Z,00040200,01000000,0001.04,0000.57,0000.25,-000.02,0000.26,-000.40,0000.22,0000.59,0000.44,19.6,25.8,00.6,00.4,0657.8,31.1
2021-09-22T15:09:00Z,00040200,01000000,0000.65,0000.60,0000.18,0000.06,0000.31,0000.16,-000.23,-000.38,-000.05,19.6,25.8,00.7,00.5,0657.8,31.1
2021-09-22T15:10:00Z,00040200,01000000,0000.96,0000.40,0000.33,0000.23,0000.49,0000.01,0000.28,0000.71,0000.33,19.7,25.8,00.6,00.4,0657.8,31.1
2021-09-22T15:11:00Z,00040200,01000000,0000.58,-000.01,0000.55,0000.10,0000.26,0000.23,0000.40,-000.03,0000.17,19.7,25.9,00.7,00.5,0657.8,31.1
2021-09-22T15:12:00Z,00040200,01000000,0000.55,0000.79,0000.49,0000.39,-000.03,0000.29,0000.14,0000.09,0000.04,19.8,25.9,00.6,00.4,0657.8,31.1
2021-09-22T15:13:00Z,00040200,01000000,0000.86,0000.27,0000.23,0000.61,0000.89,-000.21,-000.08,-000.07,-000.01,19.8,25.9,00.6,00.4,0657.8,31.1
2021-09-22T15:14:00Z,00040200,01000000,0000.43,0000.61,0000.40,-000.12,0000.08,-000.13,0000.16,-000.06,-000.12,19.7,25.9,00.7,00.5,0657.9,31.1
2021-09-22T15:15:00Z,00040200,01000000,0000.77,0000.43,0000.34,0000.15,0000.53,0000.16,-000.09,0000.39,0000.17,19.6,25.8,00.6,00.4,0657.8,31.0
2021-09-22T15:16:00Z,00040200,01000000,0001.04,0000.37,0000.50,0000.12,0000.05,-000.12,0000.46,0000.09,-000.11,19.6,25.8,00.7,00.5,0657.8,31.0
2021-09-22T15:17:00Z,00040200,01000000,0000.14,0000.37,0000.52,0000.17,0000.16,0000.05,0000.13,0000.35,0000.41,19.5,25.8,00.6,00.4,0657.8,31.0
2021-09-22T15:18:00Z,00040200,01000000,0000.57,0000.32,0000.24,0000.61,-000.01,-000.05,0000.12,0000.13,-000.08,19.4,25.7,00.9,00.6,0657.8,31.0
2021-09-22T15:19:00Z,00040200,01000000,0000.86,0000.24,0000.08,0000.11,0000.24,-000.04,0000.60,0000.15,0000.34,19.4,25.7,00.8,00.6,0657.8,31.0
2021-09-22T15:20:00Z,00040200,01000000,-000.17,0000.29,0000.67,0000.42,-000.03,-000.04,0000.36,0000.43,0000.41,19.4,25.7,00.8,00.6,0657.8,31.0
2021-09-22T15:21:00Z,00040200,01000000,0000.70,0001.00,-000.19,0000.28,0000.05,-000.27,0000.17,0000.34,0000.11,19.4,25.7,00.9,00.6,0657.7,31.0
2021-09-22T15:22:00Z,00040200,01000000,0001.25,0000.44,0000.42,-000.19,0000.21,0000.12,0000.48,0000.63,0000.16,19.5,25.7,01.0,00.7,0657.7,31.0
2021-09-22T15:23:00Z,00040200,01000000,0001.11,0000.49,0000.03,0000.30,0000.25,-000.10,0000.20,0000.50,0000.72,19.6,25.8,01.1,00.7,0657.7,31.1
2021-09-22T15:24:00Z,00040200,01000000,0000.62,-000.02,0000.22,0000.64,0000.16,0000.15,0000.33,-000.24,0000.01,19.6,25.8,01.1,00.8,0657.8,31.1
2021-09-22T15:25:00Z,00040200,01000000,0000.86,0000.27,0000.60,-000.09,0000.47,0000.05,0000.58,0000.45,0000.34,19.7,25.8,01.0,00.7,0657.8,31.1
2021-09-22T15:26:00Z,00040200,01000000,0000.72,0000.47,0000.30,0000.28,0000.20,-000.04,0000.22,0000.45,0000.29,19.8,25.9,01.1,00.7,0657.8,31.1
2021-09-22T15:27:00Z,00040200,01000000,0000.69,0000.47,0000.18,0000.38,0000.29,-000.27,0000.19,-000.05,-000.00,19.8,25.9,01.0,00.7,0657.8,31.1
2021-09-22T15:28:00Z,00040200,01000000,0000.14,0000.12,0000.26,-000.08,0000.40,-000.08,0000.09,0000.31,0000.50,19.8,25.9,01.1,00.7,0657.8,31.1
2021-09-22T15:29:00Z,00040200,01000000,0000.05,0000.54,0000.16,0000.11,0000.17,-000.06,-000.53,-000.62,-000.04,19.7,25.9,01.1,00.8,0657.8,31.1
2021-09-22T15:30:00Z,00040200,01000000,0000.19,0000.63,0000.55,0000.36,0000.06,0000.26,0000.24,0000.53,-000.44,19.7,25.8,01.1,00.8,0657.8,31.0
2021-09-22T15:31:00Z,00040200,01000000,0000.18,0000.22,0000.19,-000.43,-000.08,-000.21,0000.25,-000.24,-000.15,19.6,25.8,01.2,00.8,0657.8,31.0
2021-09-22T15:32:00Z,00040200,01000000,0001.17,0000.22,0000.20,0000.38,0000.19,-000.13,-000.15,0000.14,0000.40,19.5,25.8,01.2,00.8,0657.8,31.0
2021-09-22T15:33:00Z,00040200,01000000,0000.59,0000.52,0000.32,0000.01,0000.37,-000.07,0000.02,-000.14,0000.01,19.4,25.7,01.1,00.8,0657.8,31.0
2021-09-22T15:34:00Z,00040200,01000000,0000.98,0000.64,0000.29,0000.22,0000.24,0000.09,0000.26,0000.38,0000.12,19.4,25.7,01.2,00.8,0657.7,31.0
2021-09-22T15:35:00Z,00040200,01000000,0000.08,0000.49,0000.31,0000.19,0000.06,0000.03,0000.27,0000.20,0000.14,19.4,25.7,01.2,00.8,0657.8,31.0
2021-09-22T15:36:00Z,00040200,01000000,0000.81,0000.81,0000.35,-000.12,-000.01,0000.13,0000.33,0000.06,0000.52,19.5,25.7,01.1,00.8,0657.9,31.0
2021-09-22T15:37:00Z,00040200,01000000,0001.66,0000.24,0000.38,-000.11,0000.47,-000.08,-000.07,0000.38,-000.27,19.5,25.8,01.2,00.9,0657.8,31.1
2021-09-22T15:38:00Z,00040200,01000000,0000.12,0000.43,0000.28,-000.13,0000.12,-000.16,0000.44,-000.01,0000.30,19.6,25.8,01.1,00.8,0657.8,31.1
2021-09-22T15:39:00Z,00040200,01000000,0000.88,0000.15,0000.28,0000.41,0000.18,-000.08,-000.05,0000.30,0000.20,19.7,25.8,01.1,00.8,0657.8,31.1
2021-09-22T15:40:00Z,00040200,01000000,0000.71,0000.50,0000.24,0000.49,0000.29,-000.16,0000.24,-000.12,0000.19,19.8,25.9,01.1,00.7,0657.8,31.1
2021-09-22T15:41:00Z,00040200,01000000,0000.73,0000.49,0000.21,-000.12,0000.01,-000.16,-000.03,0000.17,-000.21,19.8,25.9,01.1,00.8,0657.9,31.1
2021-09-22T15:42:00Z,00040200,01000000,0001.21,0000.34,0000.29,0000.83,0000.20,-000.04,0000.04,-000.04,0000.30,19.8,25.9,01.0,00.7,0657.9,31.1
2021-09-22T15:43:00Z,00040200,01000000,0000.74,0000.25,0000.42,0000.74,0000.08,0000.29,-000.25,0000.15,-000.19,19.8,25.9,01.0,00.7,0657.8,31.1
2021-09-22T15:44:00Z,00040200,01000000,0000.93,0000.23,0000.12,0000.19,0000.19,0000.02,0000.06,-000.37,-000.07,19.7,25.9,01.0,00.7,0657.8,31.1
2021-09-22T15:45:00Z,00040200,01000000,0000.60,0000.46,0000.64,0000.36,-000.12,0000.08,-000.20,0000.04,-000.07,19.6,25.8,01.1,00.7,0657.8,31.0
2021-09-22T15:46:00Z,00040200,01000000,0000.49,0000.54,0000.75,0000.21,0000.35,0000.34,0000.22,-000.14,-000.09,19.5,25.8,01.2,00.8,0657.8,31.0
2021-09-22T15:47:00Z,00040200,01000000,0000.60,0000.63,0000.28,0000.24,0000.50,-000.45,-000.10,-000.01,-000.08,19.5,25.8,01.1,00.7,0657.8,31.0
2021-09-22T15:48:00Z,00040200,01000000,0000.13,0000.21,0000.35,0000.55,0000.23,0000.20,0000.41,0000.09,0000.20,19.4,25.7,01.0,00.7,0657.8,31.0
2021-09-22T15:49:00Z,00040200,01000000,0001.64,0000.48,0000.54,0000.20,0000.27,-000.13,-000.16,0000.43,-000.05,19.4,25.7,01.1,00.7,0657.8,31.0
2021-09-22T15:50:00Z,00040200,01000000,-000.06,0000.21,0000.67,-000.33,0000.14,0000.06,0000.42,0000.46,0000.81,19.4,25.7,01.2,00.8,0657.8,31.0
2021-09-22T15:51:00Z,00040200,01000000,0001.34,0000.36,0000.14,-000.00,0000.19,0000.07,0000.31,-000.52,-000.18,19.4,25.7,01.2,00.8,0657.9,31.0
2021-09-22T15:52:00Z,00040200,01000000,0001.48,0000.10,0000.43,-000.04,0000.29,0000.03,-000.06,0001.00,0000.24,19.5,25.7,01.1,00.7,0657.9,31.1
2021-09-22T15:53:00Z,00040200,01000000,0001.27,0000.65,0000.15,0000.05,0000.39,-000.23,0000.56,-000.17,0000.28,19.6,25.7,01.1,00.7,0657.9,31.1
2021-09-22T15:54:00Z,00040200,01000000,0001.35,0000.25,0000.34,0000.47,0000.01,0000.04,-000.09,0000.29,0000.17,19.6,25.8,01.0,00.7,0658.0,31.1
2021-09-22T15:55:00Z,00040200,01000000,0000.53,0000.70,0000.50,0000.03,0000.25,0000.05,-000.23,0000.17,-000.35,19.7,25.8,01.1,00.7,0658.0,31.1
2021-09-22T15:56:00Z,00040200,01000000,0000.14,0000.32,0000.25,-000.17,-000.02,0000.30,0000.40,0000.15,0000.52,19.7,25.8,01.0,00.7,0658.0,31.1
2021-09-22T15:57:00Z,00040200,41000000,,,,,,,-000.27,-000.62,-000.42,19.8,25.9,01.2,00.8,0658.0,31.1
2021-09-22T15:58:00Z,00040200,61000000,,,,,,,-000.18,-000.24,-000.57,19.5,25.9,00.8,00.6,0657.0,31.1
2021-09-22T15:59:00Z,00040200,21000000,,,,,,,-000.20,0000.03,0000.38,19.5,26.0,00.8,00.5,0657.0,31.1
